DECAYED

FREGAT R/B, 68537 (Decayed)

Orbit data source: Space-Track

FREGAT R/B, 68537 was space debris in LEO originally from a launch on Mon, 23 Mar 2026 UTC via a SOYUZ-2-1B launch vehicle from the Plesetsk Missile And Space Complex (PKMTR). Debris objects in space refer to the collection of defunct objects orbiting the Earth. Examples of debris include non-operational satellites, rocket bodies, and fragments generated from explosions, collisions, or faulty payload assembly.

Not visible in the next 10 days
Identifier
68537, 2026-061S
Orbit
Decayed
Country
Flag of CISCIS
Related business
Manufacturer
Unknown (RU)
Mission
Decayed spacecraft
Bus & Motor
OBZP, Unknown motor
Mass
~2,360 kg wet, ~10 kg dry
Launch date (UTC)
2026-03-23 (3 months ago)
Launch vehicle
SOYUZ-2-1B
Launch site
Plesetsk Missile And Space Complex (PKMTR)
Object type
Payload
Rocket body
Debris
Shape & HBR
Unknown shape, 8.0 m
Radar Cross Section
Large (>1 m²)

Expand to show TLE details & history
Last TLE update: 4 weeks ago

TLE from 4 weeks ago
0 FREGAT R/B
1 68537U 26061S   26136.73612394  .12102578 -12032-5  10642-3 0  9993
2 68537  82.2910  46.3768 0011375 231.6889 128.3394 16.51508772  8652
Epoch: 2026-05-16T17:40Z
TLE epoch observation values (Epoch: 2026-05-16T17:40:01.108Z)
Latitude
0.00002°
Longitude
-93.07663°
Altitude
143.225 km
Speed
7.817 km/s
True Right ascension
03h 05m 30s
True Declination
0° 00' 00"
Sunlit
Object was in daylight at epoch
Visualization orbit readout
Latitude
Unknown
Longitude
Unknown
Altitude
Unknown
Speed
Unknown
Apparent Right ascension
Unknown
Apparent Declination
Unknown
Sunlit
N/A
Visualization observer readout
Local Sidereal Time
03:14:15
Azimuth
Unknown
Elevation
Unknown
Doppler factor
Unknown
Orbital elements
Apogee altitude
139.578 km
Perigee altitude
124.767 km
Semi-major axis
6,510.309 km
Eccentricity
0.00114
Inclination
82.291°
RAAN
46.3768°
Arg. of periapsis
231.6889°
True anomaly
128.44155°
Mean anomaly
128.3394°
Eccentric anomaly
128.39048°
Mean motion
4.13181 °/min
Orbital period
87.13 mins
BSTAR
0.00010642
Loading maneuver chart data...
Computing Atmospheric mass density...
Loading historical data...
Loading historical data...
Loading historical data...
Loading historical data...
Loading historical data...
Loading historical data...
Loading historical data...

Documentation

Showing up to 5 results
|